Theta_e
292 293 293 294 293 293 293 293 294 293 295 295 293 295 298 299 297 296 304 309 305 305 307 309 313 317 315 314 316 317 317 317 320 323 321 322 327 331 333 339 343 343 342 345 347 346 346 345 345 345 346 347 349 350 350 351 351 352 355 356 356 355 355 355 356 357 358 358 358 358 358 359 358 357 357 358 358 358 358 358 357 358 358 358 358 359 360
291 292 292 293 292 293 293 293 294 295 295 295 296 298 300 300 299 302 304 306 306 308 309 311 319 324 321 321 321 323 322 317 320 319 319 316 318 323 330 336 338 343 343 345 348 348 348 345 346 345 346 348 348 348 349 350 351 353 355 356 355 354 354 355 358 359 359 359 358 359 358 358 359 358 357 358 357 357 358 358 358 359 359 359 358 358 359
290 292 293 293 293 293 292 294 295 296 296 297 300 305 308 308 305 303 303 304 304 310 320 322 325 326 328 330 328 333 338 338 336 332 326 320 317 318 325 332 338 341 343 345 347 348 348 347 347 345 348 347 347 347 349 350 353 354 355 355 354 354 354 356 357 359 359 359 359 358 358 358 359 358 358 358 358 358 358 358 358 360 359 358 357 358 358
288 291 292 292 293 293 292 293 295 296 298 300 304 305 308 306 305 306 306 303 304 317 319 323 328 328 333 332 334 334 335 336 337 338 337 332 326 321 320 324 333 340 341 344 346 346 345 345 346 347 349 347 348 346 348 349 350 352 352 353 353 354 355 356 358 359 357 358 358 358 358 358 359 359 358 358 358 359 358 358 359 359 358 358 359 358 357
286 291 291 291 292 293 291 293 296 299 302 305 307 309 310 308 308 307 306 305 312 314 319 320 326 330 332 332 333 333 334 337 337 337 339 340 337 331 326 324 330 334 338 342 346 344 345 345 345 346 348 347 348 348 351 352 352 351 351 351 354 355 355 358 358 358 358 358 358 358 358 358 359 359 359 358 358 357 356 358 358 358 358 358 358 358 358
287 290 291 293 291 285 288 302 304 303 303 304 305 305 306 307 308 307 309 310 314 315 315 316 321 329 330 333 335 337 337 337 337 338 340 341 342 335 330 327 326 333 340 342 345 346 347 347 346 347 349 348 350 352 352 354 352 354 353 352 354 355 356 357 357 358 358 358 357 358 358 358 359 358 357 357 356 356 356 358 358 357 357 358 359 359 359
285 289 291 288 283 287 302 304 305 306 306 305 305 307 306 305 307 308 308 310 311 313 314 316 320 329 335 336 336 338 339 340 339 339 339 342 344 339 332 332 331 337 343 345 348 348 347 346 348 348 348 349 353 354 353 352 353 355 354 353 355 356 356 357 357 357 358 358 357 358 358 358 358 357 357 357 357 356 356 356 357 357 357 357 358 359 359
289 287 287 280 285 296 299 304 303 306 306 306 308 307 306 305 306 306 306 308 310 312 314 316 320 329 334 335 337 339 341 342 341 340 340 342 344 344 338 335 338 343 340 343 343 347 348 347 347 348 348 349 350 351 352 352 351 353 354 356 356 356 355 355 356 357 358 358 358 359 358 358 357 357 357 358 357 357 357 356 358 358 358 357 357 358 358
282 286 287 288 295 294 302 302 300 301 301 301 304 303 303 305 305 305 305 307 309 310 313 316 323 333 335 332 335 340 339 340 342 343 343 344 345 347 345 339 341 348 347 348 346 351 349 348 347 347 348 350 351 351 351 350 352 353 354 355 354 355 355 355 356 358 358 357 358 358 358 357 357 356 357 358 358 359 357 356 356 356 357 357 358 358 357
289 284 284 286 286 285 295 300 302 304 305 306 305 305 303 306 306 306 305 304 307 309 311 316 324 333 330 327 330 334 336 340 342 344 345 346 348 348 342 341 346 349 348 348 352 347 349 348 348 349 351 352 353 353 351 352 353 353 353 353 355 356 355 356 358 359 359 358 358 358 358 357 357 357 358 358 358 359 357 356 355 356 358 357 358 359 357
287 285 282 284 283 288 298 299 302 305 306 306 307 305 301 305 306 306 305 304 306 308 309 313 325 329 323 324 328 332 333 337 341 342 345 346 348 349 344 341 342 344 349 349 349 351 349 347 349 352 352 353 355 353 352 351 351 351 352 353 355 356 357 359 360 359 359 359 358 358 358 358 358 358 358 359 359 360 358 358 357 359 359 358 358 359 358
285 285 284 283 290 286 298 302 303 306 308 308 306 296 297 303 308 307 306 304 305 307 309 314 319 317 316 318 325 331 333 336 338 340 343 345 347 350 349 343 346 351 354 353 348 348 347 349 350 352 352 353 353 351 350 350 350 351 353 355 357 359 360 360 360 359 359 360 359 358 358 359 359 359 360 359 360 359 359 359 358 358 358 359 358 359 359
285 285 285 289 291 299 303 302 306 307 308 306 297 293 299 305 307 308 306 305 306 308 307 311 311 316 319 322 325 331 332 333 335 338 343 345 347 349 350 351 350 349 350 349 346 346 350 354 350 351 351 352 354 355 354 353 352 353 357 360 361 361 362 360 359 359 359 360 359 359 360 360 360 360 361 360 360 360 359 358 359 359 359 359 358 359 359
283 285 284 286 292 300 303 306 308 309 304 296 296 302 308 307 307 308 307 305 306 308 308 310 311 317 320 322 325 324 327 330 332 335 338 342 345 349 351 353 355 352 347 350 349 348 354 352 350 352 354 355 356 356 354 354 356 357 361 362 363 363 362 360 360 360 360 362 362 360 362 363 362 361 362 362 361 360 359 359 360 359 360 359 359 358 360
287 286 284 284 282 298 304 306 306 306 298 296 302 306 307 306 306 306 305 306 306 307 308 311 310 312 315 317 319 321 322 325 328 331 333 336 340 343 346 349 352 353 353 351 349 349 349 350 352 354 354 355 355 355 355 357 359 361 362 361 363 363 362 361 362 361 362 362 361 361 362 363 363 362 362 362 362 362 361 361 360 359 359 358 358 357 359
283 283 283 284 295 298 303 303 296 300 301 303 304 304 303 306 306 305 305 305 305 305 307 310 311 311 310 310 313 319 320 321 324 328 330 333 337 341 344 346 349 351 352 355 355 356 353 356 356 356 355 355 356 355 356 360 362 362 363 363 364 363 363 362 362 362 363 363 363 363 364 364 363 362 362 362 362 362 361 360 359 357 357 357 357 356 356
288 288 293 297 300 302 303 303 302 303 303 304 305 304 304 303 305 306 306 305 305 305 307 306 308 310 307 308 311 314 319 320 322 326 328 329 333 337 341 343 347 350 350 351 354 356 359 360 361 359 358 357 357 355 362 365 363 361 362 362 362 361 361 362 363 362 363 363 363 364 364 364 363 362 363 363 361 362 362 360 359 357 357 357 357 356 356
295 296 296 299 299 300 302 303 303 302 303 304 304 303 302 305 306 306 305 306 306 306 308 304 305 307 308 306 308 310 317 321 322 325 327 328 330 334 338 342 345 348 350 352 353 353 355 360 364 364 363 362 359 363 365 365 365 365 363 362 361 361 361 362 362 362 363 363 364 365 365 364 364 363 363 362 361 362 361 360 360 358 357 357 357 357 357
289 286 296 296 296 298 303 302 303 304 304 305 305 304 303 304 305 305 307 306 306 306 307 305 305 306 308 306 307 309 314 319 321 322 325 326 328 331 335 339 344 346 348 348 349 350 351 355 358 361 365 366 366 366 366 367 368 368 365 363 361 362 361 361 363 363 363 362 363 365 366 365 365 365 363 364 363 361 362 360 359 358 358 357 357 356 356
287 290 294 296 298 300 303 303 302 301 303 304 304 306 306 305 306 307 307 307 306 307 306 306 306 307 309 308 307 308 310 316 320 322 324 325 326 331 334 338 342 344 345 346 347 347 347 351 354 356 358 359 362 364 364 366 366 367 365 365 362 363 363 364 364 364 364 363 363 363 364 364 363 363 364 365 363 362 361 361 360 359 359 357 356 358 357
292 295 296 297 297 301 301 302 303 303 303 302 303 305 305 305 305 305 307 307 308 307 306 307 307 307 309 309 309 310 311 314 318 322 323 324 325 329 331 334 339 340 343 345 347 347 347 350 353 354 355 356 360 363 365 367 368 366 364 362 364 363 363 362 363 366 367 366 364 363 364 367 352 339 355 366 365 366 367 368 365 363 362 361 361 362 361
288 290 293 295 290 292 297 299 301 302 302 302 303 304 305 305 304 305 305 306 307 307 309 307 307 307 309 310 310 311 312 314 319 322 323 323 325 327 330 333 335 338 342 344 346 347 348 350 352 353 354 355 357 358 362 367 369 367 365 363 363 363 363 362 362 361 361 362 364 362 364 358 344 331 309 299 309 351 367 340 332 330 336 361 365 365 363
288 294 297 297 297 296 297 299 301 302 303 302 302 303 304 305 306 306 305 305 306 307 309 310 308 309 309 308 310 310 311 313 320 323 323 323 324 325 328 329 331 334 338 341 345 347 348 350 351 352 352 353 355 357 359 362 368 371 369 366 365 364 363 363 360 361 360 360 363 366 360 353 349 344 342 332 300 295 303 311 311 314 312 313 314 326 358
296 298 298 299 297 295 298 301 302 302 304 303 302 304 306 306 305 306 305 306 306 306 308 310 310 311 309 308 310 309 311 313 320 323 324 324 325 326 327 328 329 331 334 337 339 343 348 349 350 351 351 351 352 353 357 359 362 368 371 369 367 366 366 365 360 364 365 364 364 361 356 354 352 349 350 349 339 306 297 300 298 294 295 297 299 305 308
295 299 300 300 300 301 301 302 302 303 304 305 303 304 305 305 306 307 306 306 307 308 307 310 310 311 311 310 311 310 310 313 318 323 325 324 324 324 326 327 327 329 330 334 338 343 347 348 348 349 349 349 350 351 354 356 359 364 367 368 367 366 366 365 362 362 361 359 358 357 354 352 353 354 354 351 349 342 323 299 296 296 296 296 296 293 297
301 301 301 302 302 302 303 303 302 303 304 306 305 305 306 308 308 308 308 308 308 308 309 310 312 311 312 311 312 311 311 313 320 324 324 322 322 322 323 324 326 329 331 334 337 339 342 346 347 347 347 347 348 349 350 353 356 360 363 365 366 366 365 363 363 361 359 357 356 355 354 354 355 355 355 356 356 347 339 336 332 315 304 298 296 299 296
303 304 303 300 300 301 303 301 300 305 306 307 306 306 306 306 307 307 309 310 310 311 312 313 313 313 312 314 314 313 312 312 319 321 320 321 321 322 324 326 326 329 330 332 334 335 337 341 343 344 344 344 347 349 350 352 357 359 360 362 363 358 358 361 364 361 360 358 357 354 353 353 353 353 355 355 354 350 349 349 349 340 328 318 303 296 304
302 303 303 299 298 301 303 305 306 306 306 306 306 306 306 306 306 306 305 306 306 308 310 313 313 313 312 313 314 314 313 311 315 319 318 317 321 323 324 325 326 329 330 330 331 333 336 338 340 341 341 342 345 348 348 350 354 355 356 356 357 359 359 358 361 360 358 357 355 353 352 353 354 355 354 352 352 353 348 344 336 325 318 314 312 306 299
301 302 304 305 305 306 307 308 307 306 306 308 308 308 307 305 305 305 304 305 307 308 310 312 313 313 312 313 315 314 314 313 313 319 319 321 323 323 323 324 327 328 328 327 326 328 332 335 337 339 339 341 343 345 346 349 350 350 351 352 353 353 354 354 354 358 357 354 354 353 346 348 352 350 349 347 343 342 339 334 327 323 319 319 320 320 317
301 302 303 304 305 305 305 305 305 306 306 307 307 307 307 306 305 305 304 304 306 309 310 310 311 312 313 314 315 315 315 315 315 320 322 322 322 323 322 322 325 325 324 322 322 324 328 332 334 335 335 338 341 343 344 347 347 348 348 348 349 349 350 350 351 350 351 350 343 336 343 345 344 342 339 338 337 334 331 328 327 326 325 325 325 324 323
300 301 302 303 304 304 303 304 306 306 305 306 307 306 306 306 304 303 303 304 305 307 311 311 310 311 313 314 314 316 319 320 320 320 320 320 321 322 321 320 318 317 317 318 321 323 326 329 332 332 334 336 339 342 343 344 345 346 346 344 341 328 327 331 336 347 347 344 344 346 342 339 337 336 334 333 332 332 332 332 330 329 328 326 325 325 325
299 299 300 301 302 302 302 303 304 306 305 305 304 303 304 303 303 303 303 304 305 306 307 309 311 311 311 314 316 317 318 318 317 317 319 320 321 321 321 320 318 319 319 320 321 322 324 326 328 330 333 334 336 338 340 342 344 344 342 341 343 342 336 332 340 341 343 342 341 340 340 338 337 336 333 332 330 329 328 327 327 327 327 326 326 326 328
297 296 296 298 300 300 300 301 302 303 305 305 304 304 304 304 304 303 304 305 306 307 307 309 312 313 315 314 314 314 315 315 315 316 317 318 319 320 320 320 320 319 319 319 320 322 322 323 326 330 331 332 333 335 336 338 340 341 341 341 341 340 339 334 335 341 341 340 338 336 335 333 332 331 330 328 327 326 324 323 321 320 318 317 316 317 316
297 296 297 299 299 298 298 299 302 302 304 305 306 306 305 305 305 304 305 306 306 308 310 313 314 313 313 313 313 313 313 312 313 314 313 314 317 319 319 320 320 320 319 320 320 320 320 323 326 328 329 330 331 332 333 335 337 338 338 339 338 339 340 338 337 339 338 335 334 333 333 331 329 328 327 325 323 321 320 320 319 318 316 315 314 314 307
301 301 301 301 301 302 302 301 301 302 302 303 304 305 307 308 308 308 310 310 309 310 311 312 312 312 312 312 312 312 311 310 310 310 311 312 314 315 316 317 319 321 321 319 319 318 320 323 325 327 328 328 329 329 330 331 333 335 335 334 337 337 335 334 334 333 333 333 333 332 330 328 326 326 325 323 322 320 319 318 317 316 315 314 314 314 312
302 301 301 301 301 302 302 302 302 303 303 303 304 304 304 305 306 307 308 309 310 311 311 311 311 311 311 310 309 309 309 310 310 310 310 311 312 313 314 314 316 318 319 319 317 318 319 321 322 323 326 326 327 327 327 328 330 331 332 333 334 330 329 328 328 328 328 327 325 325 323 323 323 321 320 319 319 319 318 316 315 314 313 313 312 313 312
302 301 301 302 302 302 302 302 302 302 302 303 303 304 304 305 305 306 307 307 308 309 310 310 310 309 308 309 309 309 309 309 309 310 310 311 312 311 311 312 312 313 315 315 315 317 319 319 320 321 323 324 325 326 325 325 329 329 330 333 330 327 324 323 323 322 321 322 321 320 319 319 318 317 317 315 315 315 314 313 312 311 311 311 311 310 311
302 302 302 301 302 302 302 302 303 303 303 303 304 304 305 304 305 305 305 306 306 307 308 308 308 308 308 308 308 307 308 309 309 309 310 310 310 310 309 309 309 311 310 310 314 317 318 318 317 319 320 320 320 321 321 320 324 327 329 328 325 323 321 320 318 318 317 317 317 317 316 315 314 313 312 312 312 312 311 311 310 309 308 308 308 308 307
302 303 302 302 302 302 303 303 303 303 303 302 302 303 305 305 305 306 305 305 306 307 306 306 307 306 306 306 306 306 307 307 308 309 308 308 309 308 307 308 309 310 312 314 314 315 316 316 317 318 319 318 318 317 318 318 319 322 323 322 321 319 317 316 314 314 314 314 313 312 311 310 310 309 309 309 309 308 308 308 307 307 306 305 305 305 305
301 302 302 302 301 302 302 302 303 303 303 303 303 302 304 305 304 304 304 304 306 307 306 306 305 304 304 304 304 304 306 307 308 308 308 308 308 307 308 308 310 312 314 314 314 314 315 315 315 315 315 315 315 315 316 315 316 316 316 317 316 315 314 314 313 311 310 310 309 309 307 307 307 307 307 307 306 305 305 305 304 303 303 303 303 303 304
302 302 302 302 302 302 302 301 302 303 303 303 303 304 305 304 305 303 302 303 304 305 306 306 305 304 304 304 304 305 306 307 307 307 308 308 306 306 305 304 308 312 313 313 313 313 313 313 313 313 313 313 314 313 313 312 313 312 311 310 309 309 310 310 310 309 308 307 307 305 305 304 304 303 304 303 303 303 304 303 303 303 302 301 301 301 301
302 303 303 302 302 302 302 302 302 302 302 303 304 305 305 306 305 304 304 304 304 304 304 305 307 305 304 305 305 306 305 306 306 306 306 305 305 305 304 305 310 311 312 312 311 310 310 310 311 311 311 312 313 312 312 311 310 308 307 306 306 307 306 306 305 305 305 304 304 304 304 303 302 302 302 301 301 301 301 301 300 300 300 301 301 300 300
303 302 302 302 302 303 302 302 302 302 303 303 304 305 304 305 305 305 305 304 304 303 303 303 304 305 305 303 303 303 303 305 305 306 306 307 307 307 306 307 310 311 312 311 310 308 309 309 309 310 311 310 310 311 310 308 308 307 307 306 306 305 304 304 303 303 302 301 300 300 300 299 299 299 299 299 299 299 299 299 298 298 298 299 299 300 300
304 303 303 302 302 303 303 303 302 302 302 303 305 306 305 305 304 304 304 304 304 304 303 302 302 302 302 303 302 302 302 303 303 304 305 305 306 308 309 309 309 310 311 310 309 308 308 309 308 308 309 309 308 308 307 305 305 305 304 304 304 304 303 303 302 302 301 301 301 300 300 301 300 299 298 298 298 297 298 297 298 298 298 298 299 299 300
304 304 304 303 303 304 303 302 302 302 303 304 304 304 305 304 304 305 304 304 303 303 304 303 303 303 302 302 302 302 303 303 303 303 301 302 302 303 309 310 310 309 310 309 309 308 307 308 308 308 307 307 306 306 304 303 303 303 303 302 302 302 302 302 301 301 301 300 300 300 300 299 300 300 299 299 299 298 297 297 296 297 297 296 296 296 296
302 303 304 304 303 303 304 304 305 304 303 303 303 304 304 305 305 306 305 303 304 304 304 303 303 304 304 303 303 303 302 303 304 305 304 303 302 304 309 309 309 309 309 308 308 307 307 309 308 307 306 306 306 305 304 304 303 302 301 300 300 300 299 300 300 300 299 299 299 299 299 299 298 298 299 299 299 299 299 299 299 298 298 297 296 297 297
301 301 302 302 304 305 306 305 305 304 303 302 301 302 304 305 306 306 306 305 304 303 303 304 304 304 304 304 303 302 301 300 301 304 304 305 307 307 308 309 308 308 308 307 306 306 307 307 307 307 307 307 306 304 303 302 302 302 302 302 301 301 301 301 300 300 300 299 299 300 299 299 298 298 298 298 297 297 297 297 296 296 297 297 297 297 297
300 300 300 302 302 303 305 305 304 302 301 302 303 304 304 305 305 306 306 305 304 304 303 303 304 305 305 304 304 305 304 302 299 300 304 304 305 306 306 306 306 307 307 307 307 307 307 306 306 306 306 307 306 305 304 303 303 302 301 301 301 300 300 299 299 298 297 298 298 297 297 297 297 297 297 297 297 298 298 298 298 297 297 296 296 296 296
301 301 301 302 302 302 303 303 302 301 301 302 304 304 304 304 304 304 305 304 303 302 302 302 302 303 305 306 305 305 305 306 303 300 304 305 304 304 305 306 306 306 305 304 303 305 306 305 305 305 305 305 304 304 304 304 304 303 303 302 301 301 300 300 300 300 299 299 298 298 298 297 297 297 297 297 297 297 297 297 297 297 297 297 297 297 296
301 300 300 301 302 301 301 301 300 301 302 302 302 302 303 304 303 303 304 305 304 303 302 302 302 303 304 304 304 305 306 305 305 305 305 305 304 304 305 305 304 304 304 303 303 303 304 305 304 305 304 303 302 303 303 303 303 303 302 303 302 301 301 300 299 299 299 299 298 298 297 297 297 297 298 298 298 297 296 296 296 296 296 296 296 295 295
301 300 300 302 302 303 303 303 303 303 302 302 302 303 303 303 302 303 304 304 303 302 301 301 302 303 303 303 304 305 305 305 305 304 304 304 305 305 304 304 304 303 302 301 301 301 302 302 302 302 301 301 301 301 301 301 301 302 302 302 302 302 301 300 299 297 297 297 297 297 297 297 297 297 296 297 296 296 296 296 295 295 295 295 295 295 295
300 301 302 302 302 302 303 303 303 302 302 302 302 302 301 301 301 301 302 303 304 301 301 300 299 302 304 304 304 304 304 303 304 303 303 304 303 304 304 303 303 303 301 300 300 300 300 301 302 303 302 300 300 300 301 301 300 300 301 301 301 301 301 301 301 299 298 297 297 296 296 296 296 296 296 296 296 295 295 295 294 294 295 294 294 295 295
Wind_Speed
11 10 9 6 7 8 8 10 11 11 8 5 6 9 11 10 7 5 10 9 1 3 8 13 12 10 11 13 10 7 7 7 6 6 8 9 8 10 13 13 14 15 16 16 15 17 18 19 19 20 18 18 16 16 17 17 18 19 17 16 16 17 16 16 16 16 15 15 14 14 15 14 15 14 14 14 13 13 13 13 12 14 14 13 13 13 13
11 10 7 7 10 9 10 10 10 11 11 10 9 11 12 13 11 9 13 15 12 8 13 11 14 15 12 11 9 8 6 6 5 6 8 11 12 11 10 14 16 16 17 17 16 17 16 20 20 20 18 17 18 19 19 19 18 18 16 16 17 17 18 17 15 15 14 14 14 14 14 14 14 14 13 13 13 14 14 14 13 12 12 13 13 13 13
10 9 8 10 10 10 11 10 11 12 10 9 8 8 7 6 10 15 17 15 13 8 4 10 14 13 10 8 8 9 8 8 8 8 10 12 14 15 14 12 15 16 17 17 16 16 17 18 19 19 17 18 19 22 19 19 17 17 17 16 17 18 18 17 15 15 14 13 13 14 14 13 13 14 14 13 13 13 13 13 14 12 12 13 14 13 13
7 2 6 6 6 9 12 13 12 9 8 7 3 2 3 2 4 6 7 9 5 3 12 12 12 10 7 6 6 7 7 9 9 10 11 12 14 16 17 16 14 15 17 16 17 19 21 21 21 18 16 16 18 20 19 19 19 17 18 18 19 18 17 15 15 15 15 14 14 14 14 14 14 14 14 14 13 13 13 14 13 13 13 14 14 13 12
9 6 2 4 6 9 11 15 13 10 7 3 4 2 5 4 4 6 7 3 8 11 11 13 11 8 5 5 6 8 9 10 11 12 13 13 14 15 16 16 15 16 18 18 19 22 21 21 21 22 20 19 19 19 18 17 17 18 20 20 17 16 16 15 15 14 14 15 15 14 15 15 13 13 14 14 14 14 15 14 13 13 14 14 14 13 13
5 3 4 4 5 9 8 6 5 4 7 5 6 5 5 8 6 4 7 9 11 12 12 11 12 8 4 5 5 6 8 10 12 13 13 14 14 16 16 17 16 16 14 15 18 20 20 22 24 22 21 20 16 14 14 14 18 16 16 17 15 15 14 15 15 15 15 15 15 15 14 14 14 14 14 15 15 14 13 13 13 13 15 15 13 13 14
5 7 8 5 8 9 5 2 7 2 4 2 2 10 10 10 11 13 12 12 14 14 13 13 13 13 8 5 6 8 8 10 11 13 15 14 13 14 15 15 15 14 15 15 14 15 16 17 15 15 15 14 13 14 16 17 16 14 15 16 15 15 15 15 15 15 15 15 15 14 14 14 14 14 15 14 15 14 13 14 14 14 14 15 14 14 14
7 7 6 5 6 3 2 3 6 7 3 7 5 9 11 13 13 12 11 13 14 15 15 15 13 11 12 9 7 7 9 10 11 13 13 14 13 13 13 13 12 11 16 17 19 17 16 17 17 16 17 16 16 16 16 17 17 16 16 14 15 15 15 16 17 16 16 15 15 14 14 14 15 15 15 14 15 14 13 13 12 12 12 13 14 14 15
6 6 8 9 6 3 6 6 3 6 3 5 4 5 6 13 12 13 12 14 15 18 17 16 14 11 7 6 5 8 11 12 11 12 13 14 13 12 12 12 11 8 8 9 11 11 12 16 16 17 17 16 16 16 17 17 17 16 15 14 15 16 16 17 16 16 16 16 15 15 15 15 16 16 15 14 14 12 13 13 12 13 13 14 13 13 15
8 8 8 6 3 4 6 4 4 3 5 6 7 1 5 11 12 11 12 14 16 18 19 19 18 10 6 5 5 11 14 13 11 11 11 11 11 10 8 8 7 9 10 11 12 15 15 15 15 15 16 16 15 15 16 16 16 16 17 17 17 16 16 16 15 15 15 15 15 15 15 16 16 15 14 13 14 12 13 14 14 13 13 12 13 13 15
5 9 9 8 5 2 5 1 6 5 5 6 5 6 3 6 10 13 14 14 17 15 16 19 16 4 3 5 8 11 16 14 11 12 12 11 10 9 6 4 10 11 11 13 15 15 16 16 15 15 17 17 15 15 16 17 18 18 18 18 17 17 17 15 15 15 15 16 16 16 16 16 15 15 15 14 13 12 13 13 13 12 12 12 12 12 14
8 7 9 8 4 0 2 5 8 9 8 6 5 9 4 6 9 11 14 14 16 16 17 15 10 13 7 9 10 14 16 11 12 12 13 13 12 11 8 4 2 9 11 13 16 17 18 17 17 17 17 16 16 16 17 17 18 18 18 18 17 15 15 15 15 15 15 16 16 16 16 15 15 14 13 13 13 12 12 12 12 12 12 11 13 12 12
9 11 10 9 6 1 5 8 10 10 7 1 7 5 4 4 8 9 12 14 14 14 16 13 10 11 10 11 15 15 12 14 14 13 13 12 12 11 11 7 3 7 11 14 16 18 14 15 17 18 17 16 15 15 16 16 18 19 17 14 14 14 14 15 15 16 15 16 17 16 15 15 14 13 12 13 12 12 13 12 12 12 13 12 12 12 12
8 8 10 10 5 4 8 10 9 7 3 6 3 5 1 6 7 9 10 12 13 13 13 11 10 11 15 14 13 12 16 14 14 15 14 14 15 13 11 12 8 3 7 8 12 14 14 16 17 16 15 15 14 14 15 17 18 15 13 14 13 12 13 15 15 15 15 14 15 14 13 12 12 12 11 12 12 13 12 11 12 13 12 11 10 11 11
4 6 8 6 6 3 14 13 5 7 2 3 5 3 5 5 7 8 10 9 12 12 12 14 15 14 14 13 13 14 14 15 14 14 15 15 15 16 15 13 11 6 5 6 8 12 14 17 14 14 16 15 14 14 16 17 13 12 12 13 13 13 14 14 14 14 14 15 13 12 12 13 13 13 11 12 12 11 12 12 12 13 13 14 13 13 11
4 7 9 4 4 7 11 7 3 4 6 5 6 6 4 6 5 7 7 9 11 14 13 14 16 14 14 14 20 17 15 17 16 15 16 16 16 15 15 14 10 7 7 6 6 5 8 9 10 12 15 14 13 14 15 10 10 10 11 12 12 13 13 13 13 13 14 14 14 12 13 13 13 13 12 12 12 11 13 13 12 14 14 13 14 14 14
3 4 3 5 4 5 5 7 6 6 5 5 6 6 5 6 6 7 6 9 13 14 15 15 14 13 16 16 13 13 14 13 14 13 13 13 15 15 15 16 14 11 7 8 7 8 6 6 6 9 10 13 13 14 9 9 11 12 12 12 12 13 13 13 13 13 12 13 14 13 13 13 13 12 13 12 11 12 14 13 13 14 14 13 13 14 14
7 12 13 9 5 4 3 4 4 4 5 5 6 7 7 7 6 7 7 9 11 14 14 13 14 14 15 15 16 14 14 15 16 15 16 16 16 15 16 16 16 12 12 11 11 11 10 8 6 5 7 10 12 8 8 9 11 11 11 12 12 12 12 13 13 13 13 14 14 14 14 12 13 12 13 13 12 11 12 12 12 13 14 14 13 13 13
5 2 3 7 7 6 4 3 2 2 4 4 4 5 5 7 8 8 8 8 10 12 14 13 14 16 16 15 14 13 12 14 16 15 14 14 14 15 16 17 15 13 13 13 12 12 12 9 8 7 7 6 7 8 7 8 8 9 10 11 11 11 11 11 11 12 13 12 11 12 12 11 12 12 12 11 11 11 12 12 13 14 14 14 14 13 13
4 4 9 8 11 10 6 5 2 2 5 8 8 6 5 6 7 7 8 10 11 12 13 15 15 16 16 14 14 13 12 13 14 14 14 14 14 16 15 15 15 14 14 14 13 11 10 8 8 8 9 8 7 7 7 7 8 8 9 10 10 10 11 9 9 10 11 12 12 10 12 12 12 12 12 11 11 12 12 12 14 14 14 14 14 14 13
7 9 4 7 9 2 4 4 1 3 5 7 8 7 8 8 9 9 8 9 10 11 13 15 14 16 17 15 15 14 12 12 14 15 15 14 14 14 16 15 15 13 13 13 12 11 9 7 7 7 7 6 6 7 7 8 8 8 8 9 6 7 8 8 7 6 7 8 10 10 9 9 2 3 2 8 11 11 10 10 12 12 12 11 11 11 11
5 3 4 10 7 5 5 8 10 11 10 9 10 9 10 8 8 8 9 10 10 10 10 14 12 14 15 17 17 17 13 12 15 16 16 16 15 15 15 13 14 14 13 12 11 10 8 7 7 7 7 6 5 5 4 4 8 9 8 7 7 7 7 7 7 7 6 7 8 8 8 6 5 3 6 6 7 3 7 4 2 3 4 9 9 9 10
6 8 11 10 9 12 13 13 13 12 10 9 11 12 12 11 8 7 8 10 12 11 10 12 13 12 14 16 17 16 14 12 12 15 14 15 14 15 15 15 15 14 13 13 11 10 8 7 7 7 7 6 6 5 4 4 3 6 8 6 6 6 6 6 7 7 7 7 7 6 4 5 6 6 4 5 10 11 9 5 4 3 5 7 9 8 7
12 12 10 9 9 12 13 13 14 15 12 12 14 14 12 11 9 7 8 8 9 9 10 10 12 10 12 14 15 16 16 13 13 15 14 13 14 14 15 14 13 14 14 14 12 10 7 7 7 7 7 7 7 6 5 4 4 3 4 5 5 5 4 5 6 6 5 7 7 6 5 6 6 6 6 6 3 10 12 9 10 10 10 11 11 11 13
9 10 11 11 11 13 14 15 15 14 14 12 12 14 12 9 8 6 7 8 8 8 10 9 11 10 10 12 12 13 15 15 13 14 13 12 14 14 14 14 14 14 13 11 9 8 7 7 7 7 8 8 8 7 6 5 4 3 3 4 5 5 4 4 4 4 5 5 6 8 8 9 9 9 9 7 7 5 6 11 13 15 16 16 14 12 12
9 10 10 11 11 12 13 13 15 15 14 13 12 12 13 11 11 11 8 7 8 8 9 10 9 10 10 10 10 12 14 16 18 14 9 11 13 13 15 16 14 11 11 10 9 9 8 8 7 7 8 8 8 7 7 5 4 3 3 4 5 4 4 5 5 5 5 5 6 7 7 8 8 8 9 9 7 6 6 4 5 9 16 18 15 12 14
9 9 8 8 9 10 9 10 10 11 11 10 10 11 11 9 10 8 7 6 6 8 9 10 9 9 9 8 9 9 12 16 15 14 12 10 13 13 13 13 13 12 10 10 9 9 9 7 7 7 7 7 7 6 5 5 3 3 4 5 5 7 6 4 4 4 4 5 5 6 6 7 7 7 7 7 5 7 7 6 5 4 4 7 13 13 9
12 11 9 8 9 11 11 12 12 13 13 12 12 12 12 10 9 10 8 7 6 8 9 8 7 7 8 8 7 9 10 13 12 13 15 14 11 12 12 13 11 10 9 9 9 9 9 7 6 7 7 8 8 6 5 4 3 3 4 4 4 4 5 4 4 4 4 4 5 5 5 5 6 6 6 7 6 6 5 5 7 6 6 7 7 8 13
14 12 11 9 9 9 9 9 10 11 12 11 11 10 11 11 11 10 7 5 6 6 6 7 6 6 6 8 7 7 7 9 13 11 11 14 14 14 12 12 11 8 8 9 10 11 10 8 7 6 7 8 7 7 6 4 3 4 4 4 4 4 3 3 3 4 4 5 5 5 5 5 5 6 5 5 5 6 6 7 8 7 7 7 8 9 10
14 13 12 11 11 12 12 11 10 10 10 10 9 9 8 10 10 9 6 5 4 4 6 6 5 5 6 6 6 6 7 7 10 9 9 10 12 13 13 12 9 8 9 10 11 11 11 10 9 8 8 8 7 6 5 4 5 6 6 6 5 4 3 3 4 4 5 5 6 7 6 6 4 5 6 6 6 7 8 8 7 7 7 5 7 9 10
16 15 16 15 15 14 13 13 11 9 8 9 8 8 8 7 8 7 6 4 3 4 5 5 5 6 6 6 6 7 5 7 8 8 8 7 8 10 12 12 11 10 9 9 10 10 10 10 9 9 10 9 7 6 5 5 5 5 5 5 5 8 9 8 6 4 5 6 6 6 6 6 6 7 7 7 8 9 8 8 8 8 9 9 9 9 9
14 15 17 16 14 15 14 13 12 11 8 7 7 6 6 6 6 6 4 3 1 2 4 4 5 7 7 6 6 6 5 5 6 6 7 6 5 6 7 8 7 7 7 9 9 9 10 10 10 10 10 9 8 7 6 5 4 4 5 4 4 4 6 6 6 7 7 7 7 7 7 7 7 7 8 9 9 8 8 8 9 9 9 9 9 8 6
14 14 15 16 16 16 16 14 13 13 11 9 6 7 5 4 3 3 3 2 3 3 5 5 5 5 4 3 3 5 5 4 4 4 4 5 4 5 6 6 6 6 6 7 8 8 9 10 10 10 10 9 9 8 8 6 5 4 3 4 4 5 6 6 6 7 7 7 7 8 8 8 8 8 8 8 9 10 9 11 11 11 10 9 8 8 8
15 13 14 15 15 13 14 15 14 13 11 11 10 7 5 5 3 1 2 2 2 3 4 4 4 3 2 2 2 2 3 3 4 3 4 4 5 4 4 5 5 5 5 6 7 7 7 8 9 9 9 9 9 8 8 7 5 5 4 4 5 5 6 6 5 6 7 8 8 9 9 9 9 9 9 9 8 9 9 9 10 11 11 10 9 9 13
14 14 15 15 15 15 14 12 12 12 13 12 11 10 10 10 7 5 6 6 7 5 4 4 4 3 3 3 2 1 1 1 3 4 4 4 5 5 4 4 4 3 4 7 7 7 7 8 8 8 7 8 9 8 7 7 6 5 6 6 6 6 6 6 6 6 6 7 8 9 9 10 10 10 10 10 10 9 10 10 10 10 11 12 11 10 11
15 14 13 14 15 16 15 15 14 15 13 12 11 13 12 11 13 12 11 9 7 7 7 7 6 5 4 4 4 4 4 3 2 2 2 3 3 4 4 4 4 4 4 5 7 7 7 7 10 10 6 6 7 8 8 7 5 6 5 5 6 7 7 7 7 7 7 7 8 10 10 11 11 10 10 11 10 10 11 11 10 10 10 10 10 11 10
14 14 13 13 13 15 15 14 13 14 14 14 14 15 14 14 12 11 11 10 10 9 8 8 7 7 6 5 4 4 4 5 5 4 4 4 4 4 3 3 5 5 4 4 6 7 6 7 10 10 7 5 6 7 8 10 4 5 4 5 6 6 7 7 7 6 7 7 9 10 11 11 11 10 9 9 10 10 10 10 10 10 9 8 9 10 11
12 13 13 12 12 13 14 13 14 15 16 17 16 14 14 12 13 13 13 13 13 11 10 9 8 7 7 6 7 7 7 6 6 6 5 5 5 6 7 7 6 5 5 5 6 6 5 5 8 7 6 6 6 6 8 12 8 5 5 5 6 7 7 7 7 7 7 7 8 9 9 10 10 10 10 10 11 11 10 10 10 10 9 10 10 11 11
12 11 12 12 12 13 13 12 14 14 16 17 16 15 15 14 13 12 13 14 12 12 12 11 10 9 9 9 8 8 9 8 7 7 7 7 7 7 7 7 6 5 4 3 4 4 5 6 5 5 5 6 6 5 7 10 11 6 5 6 7 8 8 8 8 8 7 7 8 9 10 10 11 11 10 10 10 11 11 11 11 10 11 10 11 11 11
10 10 11 11 12 12 12 12 13 14 13 14 14 15 15 15 13 12 12 12 12 14 13 12 12 10 10 11 11 11 11 10 9 8 8 7 7 7 7 8 9 8 7 8 7 5 8 11 7 6 6 6 5 4 6 8 8 7 7 7 7 8 8 8 8 8 7 7 9 11 10 10 10 10 10 10 10 10 11 11 11 11 10 10 10 11 11
7 8 9 10 11 11 11 11 12 12 12 13 14 14 15 15 13 13 12 11 12 12 13 13 12 12 11 11 13 13 11 11 11 11 9 8 9 9 9 9 9 8 8 7 7 8 9 9 8 6 6 5 5 5 5 8 7 7 8 7 7 7 7 8 8 8 7 7 8 9 10 10 10 10 9 9 9 9 10 11 11 10 11 11 11 10 10
7 7 8 8 9 9 9 9 10 11 11 11 12 14 15 15 15 14 13 12 11 13 13 14 18 14 11 12 12 12 12 12 11 11 13 12 10 9 9 9 9 7 11 11 11 10 8 8 8 8 7 7 6 11 11 8 8 9 8 8 8 9 10 10 9 8 7 8 8 9 10 11 11 11 10 10 10 10 9 10 10 10 10 10 11 10 11
5 6 7 7 7 8 8 9 10 10 10 10 10 11 12 13 13 13 14 15 15 13 13 12 13 14 13 13 14 12 11 11 11 11 10 11 12 11 10 9 8 10 16 12 11 8 9 8 7 7 10 9 9 13 12 8 8 9 8 9 11 10 11 12 11 10 10 10 10 10 10 10 11 11 11 11 11 10 10 10 10 10 10 11 11 11 11
3 4 5 6 7 7 7 8 8 9 9 9 8 9 10 11 12 11 12 14 14 14 13 12 13 12 13 13 13 11 11 12 11 10 8 8 9 10 9 8 7 12 21 12 11 9 9 8 9 12 15 14 14 13 8 7 8 8 9 9 9 10 11 11 11 9 9 10 10 10 11 12 10 10 11 10 9 9 10 10 11 11 12 11 12 11 12
4 4 5 6 6 6 7 7 8 8 7 8 9 9 9 10 12 12 13 12 12 13 14 12 12 12 11 12 12 10 10 9 10 11 12 11 10 11 10 12 12 10 14 17 10 10 9 11 14 19 16 17 14 13 8 9 9 10 10 11 12 12 11 12 12 11 11 12 12 12 12 11 10 10 10 10 10 11 11 10 9 8 9 9 9 9 9
5 5 5 5 6 6 6 6 6 7 8 9 9 10 10 9 9 9 11 12 13 11 11 12 13 12 11 10 9 10 11 11 12 11 10 10 11 10 10 13 10 13 20 19 11 11 12 22 24 21 21 20 18 11 9 9 8 9 9 10 11 11 11 11 11 11 12 11 11 10 10 9 10 10 10 10 10 10 10 10 10 10 10 9 9 9 9
5 5 6 5 5 5 5 4 5 7 9 9 9 8 8 9 8 8 8 10 10 10 10 11 10 11 11 10 9 9 9 9 10 11 10 9 10 12 15 18 18 20 17 13 13 13 13 14 18 23 22 21 19 11 10 10 10 10 9 9 9 9 9 8 8 8 9 10 11 13 13 12 10 10 11 11 10 10 9 10 9 8 8 9 9 10 10
6 6 6 6 6 5 4 4 5 7 8 7 6 6 7 7 8 9 9 9 10 10 10 10 9 9 10 10 10 9 8 7 9 10 10 9 10 10 10 10 12 17 18 17 18 19 25 24 23 22 22 18 12 11 12 11 10 9 10 10 10 9 8 8 9 9 10 10 10 10 9 9 10 10 10 10 9 9 8 8 8 8 7 8 8 9 10
6 6 5 5 6 6 5 4 5 6 6 6 6 6 7 8 8 8 8 9 9 8 9 9 10 9 9 10 10 8 8 8 8 7 7 8 9 9 10 12 17 17 12 11 11 10 17 21 21 20 20 15 10 10 10 9 10 10 9 9 9 9 9 9 8 8 8 9 9 9 9 10 9 9 10 10 9 9 9 8 8 7 8 8 8 9 9
6 6 6 6 6 6 5 3 4 4 4 5 6 6 6 6 6 5 5 6 7 7 7 7 7 7 7 7 7 7 6 7 8 8 7 8 8 8 9 9 10 16 16 11 11 10 14 19 17 16 13 9 9 9 9 9 9 9 9 10 9 9 10 10 10 11 9 9 9 10 10 10 9 10 9 9 8 8 8 8 9 10 13 9 8 8 8
5 5 5 5 4 4 4 3 3 3 3 4 4 5 5 5 6 6 5 6 6 7 7 7 6 6 7 7 7 7 6 6 6 8 7 7 8 10 11 9 10 11 11 10 9 9 8 9 9 10 10 9 9 9 9 9 9 9 9 8 9 8 8 9 8 9 9 9 8 8 9 9 9 8 8 8 8 8 8 8 8 7 8 8 8 8 8
4 4 4 4 4 4 4 5 5 5 4 3 3 3 4 4 5 6 6 6 5 6 5 6 6 6 6 6 6 6 6 6 6 6 7 7 7 7 9 11 8 9 9 9 9 8 8 8 10 12 12 9 8 8 10 12 9 8 8 8 7 8 8 7 7 7 7 7 7 8 8 8 8 8 8 8 8 8 8 8 8 7 7 7 7 7 7
Wind_Direction
280 280 286 287 275 254 267 277 283 289 288 261 247 249 255 265 249 263 331 307 309 349 322 332 326 344 325 320 329 335 329 318 301 301 297 286 247 204 193 189 188 194 192 192 188 186 186 184 180 180 181 182 180 176 179 179 181 181 174 169 170 176 181 186 188 185 185 189 190 189 189 188 192 195 196 197 197 198 198 202 207 210 210 209 208 209 212
276 270 260 253 260 270 265 261 267 271 274 270 259 265 261 248 244 246 261 274 281 293 290 314 321 317 311 306 315 315 315 315 317 290 272 266 266 255 215 193 196 197 198 192 187 184 181 184 182 181 179 178 176 174 178 179 181 181 170 171 173 180 186 189 185 180 181 184 186 187 187 189 190 192 196 197 197 198 199 202 206 208 210 209 210 210 210
281 268 249 238 249 264 265 262 268 267 262 262 254 264 283 282 242 245 255 268 284 278 337 325 307 305 303 301 308 325 334 330 320 302 273 262 257 252 242 218 200 200 197 191 184 181 183 185 181 183 179 177 180 183 181 179 174 175 170 170 177 183 189 188 184 181 181 184 184 186 189 190 190 194 197 198 201 201 202 203 205 204 204 207 211 214 213
287 263 244 225 241 254 265 269 263 254 231 221 187 232 16 308 290 285 280 262 253 347 337 321 306 292 287 306 327 328 330 324 314 295 281 270 260 255 251 241 218 205 200 188 180 183 187 187 184 182 175 173 175 183 181 182 179 175 177 179 183 187 188 181 181 180 185 187 189 189 186 190 190 193 196 198 199 198 198 201 201 202 205 209 213 215 216
274 267 267 277 273 268 260 247 232 230 208 190 129 153 50 42 311 269 249 270 2 320 329 318 311 295 295 335 338 328 315 309 300 292 287 282 273 261 250 243 231 214 203 191 183 188 187 186 184 183 177 176 180 183 176 175 169 175 180 182 182 181 182 178 178 180 182 185 187 188 190 191 191 190 194 197 199 200 204 205 203 205 210 211 213 213 215
272 345 300 263 240 233 235 50 76 197 174 160 166 146 52 37 17 325 312 311 325 329 322 313 302 300 306 318 332 316 314 311 306 297 294 291 286 275 261 250 237 216 197 195 191 184 183 183 183 181 178 179 174 171 162 154 168 174 175 180 179 177 181 180 179 181 184 186 188 190 188 188 189 192 195 200 203 205 206 204 205 207 209 212 212 211 214
267 314 302 232 223 231 76 37 45 357 156 36 187 122 60 36 17 1 346 341 333 327 314 303 294 282 266 269 316 333 328 317 304 302 300 297 295 285 265 249 234 207 185 185 180 179 184 179 168 167 169 167 155 155 160 168 173 168 173 176 174 176 179 179 180 183 186 188 190 189 187 187 190 195 197 200 202 204 204 204 203 205 208 211 214 214 215
277 283 243 221 214 40 313 160 44 11 227 342 182 123 62 39 25 359 343 335 329 326 316 305 296 279 268 267 269 336 338 330 317 308 300 299 297 291 274 241 221 201 192 187 184 183 179 169 173 169 167 168 165 168 168 169 172 175 174 174 173 175 180 184 186 187 186 187 188 188 188 190 194 197 198 198 199 200 205 208 209 208 210 213 214 215 216
244 248 245 244 357 322 136 178 24 4 4 339 314 191 85 36 24 3 343 336 338 335 326 314 303 297 264 253 238 4 344 335 327 312 304 302 301 293 279 251 211 182 172 163 169 146 157 170 169 170 166 165 161 160 167 172 172 173 174 176 179 183 186 186 187 186 186 187 188 190 190 192 196 198 198 199 200 198 203 208 208 209 211 211 214 217 218
231 255 279 256 235 223 175 107 30 322 305 302 284 278 116 34 17 2 355 350 340 334 332 329 319 294 257 262 331 353 339 333 337 331 322 316 318 313 293 245 180 155 155 151 141 159 158 165 166 162 158 155 154 159 166 168 166 170 177 183 184 183 186 186 186 184 184 186 189 190 191 195 197 199 200 202 202 198 203 206 212 213 212 214 214 216 218
218 232 249 248 203 166 72 54 334 327 311 282 263 237 165 31 5 359 1 349 345 340 332 331 334 297 242 349 342 338 327 317 346 346 343 339 344 341 334 256 176 165 151 153 151 147 152 160 160 150 155 155 152 159 168 173 175 179 184 186 185 184 185 183 181 182 185 188 191 192 195 196 198 199 201 202 202 200 205 208 213 214 214 215 215 215 218
231 245 244 247 256 262 38 340 337 337 324 288 235 218 180 360 359 357 358 353 344 341 336 338 7 26 8 344 330 320 314 318 9 352 353 1 2 4 0 348 196 145 134 131 149 154 161 160 155 157 157 155 162 168 174 175 179 185 188 188 186 181 179 180 182 185 189 191 194 196 196 197 199 201 199 200 201 200 203 206 210 214 213 214 216 217 218
226 237 252 270 278 266 7 340 331 323 326 259 204 198 74 336 2 2 358 354 344 337 343 354 2 356 337 312 310 305 323 5 4 358 4 18 15 17 13 17 42 147 152 155 160 165 158 149 158 159 159 160 163 165 167 176 185 189 185 178 172 175 177 181 186 189 191 192 193 196 198 198 198 200 199 200 199 199 203 206 210 214 215 216 219 222 222
220 237 245 245 276 46 354 334 324 329 277 203 176 65 42 20 16 3 359 348 342 339 339 351 345 326 328 323 295 325 357 356 6 2 7 15 27 30 30 27 30 107 153 154 156 155 150 157 159 159 158 161 163 163 171 184 191 182 171 168 168 170 175 184 189 191 192 193 193 197 198 195 195 198 201 202 202 202 204 205 207 212 211 214 218 223 225
221 234 245 246 239 59 1 327 332 13 305 47 3 4 48 26 32 6 352 345 339 341 330 344 343 327 327 315 343 359 355 356 354 1 7 13 25 30 28 29 28 43 88 123 151 153 162 165 163 158 160 162 167 172 185 191 178 168 161 166 171 175 178 184 188 190 192 189 189 195 196 194 193 196 196 197 199 198 199 202 208 212 217 223 227 229 230
197 207 220 227 9 356 352 6 87 43 55 32 14 12 3 20 28 14 345 346 345 338 339 336 335 331 317 325 3 351 356 357 350 360 4 10 17 20 30 37 41 50 61 67 78 111 153 160 158 159 165 164 169 179 188 167 160 158 159 168 168 174 178 185 186 189 190 190 190 195 195 192 195 200 199 198 198 200 208 209 212 222 227 226 229 234 236
239 250 283 2 3 38 15 41 65 75 52 42 10 16 13 360 2 357 360 343 340 339 341 336 331 324 339 354 343 347 347 349 354 353 354 1 11 13 16 26 37 54 73 90 80 74 69 114 136 155 165 166 166 177 162 148 162 166 169 168 172 180 184 186 187 190 191 193 194 196 196 192 194 198 200 195 197 207 212 214 215 224 227 225 223 227 231
292 274 262 272 344 359 66 43 62 64 58 32 10 359 353 355 345 351 350 343 340 336 338 336 329 334 337 344 344 342 342 353 355 357 359 0 3 8 11 15 15 32 61 78 74 74 61 53 81 119 154 159 162 152 139 160 166 167 167 170 176 182 183 185 186 188 191 194 195 196 195 195 196 198 198 197 200 199 204 205 209 217 224 223 225 227 231
327 207 84 2 339 318 210 150 152 60 37 9 349 336 341 326 336 340 344 343 335 333 330 335 331 329 337 342 340 342 346 356 3 1 357 353 358 5 10 9 13 19 35 54 60 64 67 51 61 69 73 83 111 131 155 164 165 161 163 168 175 180 186 186 186 189 193 196 196 197 197 198 199 200 200 200 199 199 200 205 212 219 223 226 228 228 229
254 282 335 343 324 299 197 167 177 23 355 339 329 312 312 314 319 328 328 337 332 337 336 335 331 330 333 343 341 344 351 356 1 0 358 357 356 3 3 4 12 19 28 39 43 41 49 43 51 67 95 108 116 138 153 166 165 160 166 177 180 182 181 179 183 190 195 189 190 196 197 200 205 205 206 205 204 201 202 204 211 216 221 225 226 226 227
282 283 267 349 320 133 135 174 246 329 338 324 306 296 304 315 318 321 332 340 324 326 329 324 332 333 331 336 341 345 353 358 0 1 2 358 359 2 4 360 5 16 22 27 28 34 36 32 46 59 58 66 79 103 124 145 160 166 167 170 170 167 175 179 188 183 189 182 195 198 195 191 120 28 255 219 213 212 207 203 204 204 209 213 211 213 211
304 327 355 355 343 296 280 294 301 308 312 306 298 290 286 292 297 311 319 309 309 312 321 320 329 333 328 332 341 341 351 359 354 1 3 1 2 6 5 2 6 5 10 18 24 25 27 24 38 46 49 49 46 46 52 97 142 155 159 160 159 170 178 182 186 184 192 194 194 197 193 151 135 112 59 62 17 285 215 98 127 226 211 209 210 210 218
293 306 307 303 287 279 273 278 287 290 294 293 287 287 288 289 284 289 297 305 312 314 317 315 318 330 329 329 334 335 344 351 357 359 6 5 4 3 3 2 3 3 3 2 7 15 13 17 31 36 39 34 31 30 28 34 69 121 144 151 149 153 164 178 177 181 187 190 195 188 144 135 156 149 142 76 49 38 20 12 354 322 305 295 314 291 238
281 280 286 287 279 277 284 285 285 287 287 287 283 282 281 277 278 279 277 269 275 293 303 305 306 323 325 325 333 333 333 344 355 1 6 10 7 1 3 6 3 2 2 3 360 360 2 8 22 27 36 29 17 17 18 19 22 73 119 135 133 138 150 142 149 169 169 174 175 162 156 159 157 164 165 161 107 38 35 36 49 50 37 19 2 350 324
285 292 290 283 278 272 275 281 284 282 281 276 276 276 277 278 273 255 252 263 264 269 280 285 296 314 323 325 332 336 334 331 344 357 6 9 8 3 357 356 3 358 355 352 356 356 7 14 24 27 34 24 14 8 2 5 7 55 84 102 115 119 122 130 138 144 152 161 170 179 179 177 187 191 195 181 167 147 56 54 69 64 47 35 28 22 21
308 297 284 280 276 274 275 281 278 271 268 264 261 264 270 274 279 283 259 237 253 264 271 276 290 307 322 322 331 339 335 333 332 342 8 8 6 6 1 357 350 349 349 356 4 11 5 12 24 31 32 22 15 1 357 357 4 43 70 92 104 121 132 142 149 160 167 168 170 172 176 181 189 193 203 207 195 146 139 140 88 75 63 46 28 32 45
336 333 323 289 273 276 276 268 278 286 288 286 277 269 269 271 277 273 275 270 257 264 264 264 271 288 296 301 315 335 338 331 334 338 343 3 9 2 356 350 343 341 344 357 6 7 356 6 22 33 28 13 3 359 352 351 357 56 96 118 112 100 109 138 153 156 163 165 167 165 167 174 179 191 197 196 170 151 176 173 164 110 51 35 34 39 59
350 355 354 340 329 325 316 305 291 287 284 282 280 277 276 278 275 274 268 254 245 245 250 250 256 272 292 295 308 319 340 338 333 334 334 343 357 355 355 348 342 342 346 360 360 358 356 5 14 32 28 6 354 353 357 349 4 41 70 90 104 114 123 135 145 148 150 153 152 155 163 169 178 184 180 181 175 173 156 108 89 98 83 57 65 54 72
356 356 358 358 355 343 334 314 299 290 286 283 278 273 273 273 272 272 273 261 238 231 229 236 247 264 273 284 297 305 314 332 324 328 330 331 338 349 352 350 346 358 3 6 2 357 355 358 6 21 26 3 354 357 351 1 14 32 37 54 75 90 101 99 111 138 138 140 146 136 137 150 157 159 151 114 92 93 90 91 96 97 105 114 104 91 82
354 358 358 2 8 7 356 347 331 316 305 302 295 280 265 263 271 271 277 281 280 242 223 225 232 254 260 275 286 285 286 296 304 312 321 329 335 342 350 350 351 3 9 11 3 355 356 357 360 8 11 354 357 359 360 11 35 39 39 34 37 47 75 80 94 100 121 121 108 102 115 122 103 85 76 73 75 85 99 109 117 118 116 123 118 115 113
352 1 5 5 9 13 9 358 352 347 326 311 306 300 290 273 269 275 285 300 285 273 243 228 241 260 268 270 278 293 287 281 291 308 313 326 338 344 350 355 1 2 2 355 353 357 356 355 358 359 356 354 360 4 13 24 37 41 46 47 62 47 45 43 53 85 104 108 113 119 103 98 94 98 97 100 106 110 116 125 127 125 126 121 121 116 115
1 11 11 12 13 15 14 8 359 360 357 332 308 292 291 285 266 259 262 261 293 353 325 283 255 261 269 272 281 290 289 292 300 304 301 320 334 346 349 344 350 353 352 353 359 3 3 0 360 355 346 350 360 13 22 29 36 48 49 46 50 70 59 73 91 85 98 97 101 101 101 104 103 110 117 120 120 120 116 107 103 109 106 103 99 94 94
3 6 14 13 12 16 17 13 10 6 7 4 334 303 294 270 264 276 273 269 285 287 282 286 277 258 251 277 297 293 294 294 284 280 293 311 330 342 344 338 336 348 3 3 0 5 9 4 354 350 349 355 2 12 22 29 34 53 58 55 64 72 72 62 81 105 101 104 100 101 99 94 97 98 100 102 105 105 100 100 98 91 82 78 77 75 74
11 10 2 5 13 17 15 13 12 15 14 16 14 360 316 300 306 309 262 256 269 286 309 326 359 15 357 321 301 292 290 282 278 292 327 322 316 329 346 330 324 351 12 9 8 12 8 1 356 354 355 1 10 14 16 22 36 45 48 60 69 88 84 88 82 92 100 100 103 100 103 103 104 105 104 95 91 94 97 99 101 103 100 86 78 75 70
19 16 15 16 15 17 22 16 10 12 18 21 18 15 14 17 23 44 64 61 46 25 14 14 10 8 7 353 332 336 310 282 305 314 323 327 323 329 340 327 312 328 27 26 14 10 3 4 4 358 2 13 19 21 19 18 28 43 47 54 68 78 75 73 74 85 98 108 113 111 108 105 104 100 98 100 100 100 100 101 102 102 103 102 95 81 73
23 23 21 20 22 21 19 18 23 25 24 22 20 27 23 15 14 17 30 37 35 25 20 17 12 9 16 13 1 354 347 337 326 329 336 335 331 326 332 338 337 1 17 39 23 2 356 4 13 16 18 22 25 29 22 15 34 41 48 64 82 73 72 74 79 83 86 81 92 102 101 102 99 95 95 99 99 100 101 99 97 96 98 96 98 92 89
25 25 20 21 23 25 25 21 19 25 30 27 25 30 31 27 20 15 18 26 30 29 26 25 25 23 20 18 12 5 358 344 344 344 343 353 14 28 18 18 20 16 7 23 11 351 351 5 9 19 27 27 31 35 27 22 44 52 63 76 78 80 80 79 76 79 79 83 91 98 99 100 98 95 91 94 101 101 99 97 93 88 84 85 88 92 89
25 27 24 23 21 24 29 23 21 27 30 35 33 31 34 32 30 30 28 24 27 28 30 32 32 29 26 25 27 22 11 3 357 357 4 19 25 40 36 30 23 13 14 6 348 344 344 5 16 25 36 38 31 33 35 33 38 66 76 80 86 90 89 88 82 82 83 86 89 97 97 95 99 100 99 98 99 100 99 96 93 92 89 85 83 83 84
27 26 29 28 29 29 29 27 29 28 30 34 37 39 36 37 35 34 38 35 31 33 37 41 42 40 34 35 32 26 18 8 11 18 28 31 37 48 47 39 33 26 14 7 355 356 5 9 24 38 41 38 38 35 38 45 50 63 78 88 87 90 90 89 88 86 86 88 92 89 86 83 85 87 88 89 92 92 91 93 92 91 92 92 90 88 87
29 26 25 28 34 32 32 31 32 32 26 27 33 33 33 38 38 41 36 28 27 37 42 43 48 47 42 47 45 38 32 30 24 24 28 29 33 39 45 38 27 21 28 33 34 22 27 24 27 39 47 42 40 30 38 48 59 73 78 82 86 87 91 93 94 89 85 86 89 86 85 85 87 87 89 91 89 89 91 90 87 83 83 84 84 87 90
25 22 25 31 34 38 38 35 34 32 29 27 29 32 36 38 37 43 40 34 31 30 34 38 43 45 42 48 50 46 39 38 38 31 26 31 37 38 40 33 15 17 28 37 36 33 35 39 41 35 36 44 35 40 49 60 66 72 73 75 81 83 86 90 95 94 91 87 85 89 92 92 86 81 81 81 85 90 92 93 93 91 90 87 84 82 80
18 12 14 26 35 32 34 39 42 40 37 33 33 32 34 40 44 45 44 41 37 34 33 35 42 42 40 40 44 41 39 35 40 43 41 39 33 27 34 29 9 17 43 41 37 39 32 32 35 41 37 44 58 62 62 57 62 69 71 70 75 80 89 92 88 88 90 94 94 96 95 95 93 90 85 84 84 83 85 87 89 88 87 88 91 90 92
8 8 6 11 21 28 32 37 40 42 42 36 33 37 39 37 39 41 43 46 46 42 36 28 27 30 34 38 43 41 33 27 31 38 48 46 39 33 33 30 15 32 40 44 42 33 35 27 34 41 59 61 68 70 66 60 65 70 72 75 78 78 81 83 84 86 85 84 83 84 84 88 91 94 94 90 88 86 85 84 83 82 83 86 89 91 91
360 353 353 8 13 17 22 29 37 38 41 40 37 37 41 44 39 36 41 45 44 46 43 35 32 30 30 32 36 38 33 27 26 20 32 49 49 38 29 33 24 42 48 43 39 37 37 39 45 58 64 66 65 65 61 62 71 74 75 79 82 85 86 86 85 83 84 87 89 89 91 91 90 92 93 91 87 86 93 95 96 95 94 93 94 94 93
353 344 348 358 2 9 18 19 32 40 42 45 46 42 41 43 44 41 43 48 45 44 46 42 35 34 34 34 34 33 35 32 29 26 28 30 40 37 24 33 36 33 46 47 44 44 42 47 54 60 63 68 69 64 66 71 71 77 81 86 90 89 89 89 89 87 87 88 86 84 83 80 82 84 88 90 91 89 85 80 75 75 84 86 87 89 90
354 351 342 340 351 3 7 18 27 33 39 45 49 47 43 43 45 46 44 45 46 40 36 39 43 40 34 33 34 33 33 34 30 30 34 30 34 29 31 41 39 43 47 47 41 41 46 49 47 48 48 48 49 45 47 56 61 69 73 76 78 80 82 85 86 90 91 89 86 82 81 84 84 81 83 86 87 86 85 83 85 84 83 84 83 83 80
359 359 0 356 345 345 350 15 31 38 40 44 49 47 41 42 42 42 49 51 46 42 41 38 36 40 39 36 32 31 30 32 33 26 22 24 27 33 38 41 43 48 51 49 49 46 48 48 47 49 50 49 46 42 42 43 38 35 48 59 68 76 81 83 83 85 84 84 84 84 82 77 71 71 71 71 72 72 72 72 69 70 75 81 84 86 87
9 6 3 356 352 354 359 18 33 41 44 47 49 50 48 46 46 47 49 52 50 43 41 41 37 32 35 41 41 36 30 32 44 30 15 22 23 27 29 35 40 45 48 50 50 47 45 45 45 46 48 48 46 45 43 40 37 42 47 46 48 55 60 66 71 73 76 76 76 75 77 79 79 80 79 77 73 69 72 77 78 73 70 74 78 80 80
7 4 357 360 4 5 6 20 41 49 50 52 54 57 57 59 57 53 53 58 56 45 39 36 37 35 30 37 45 41 43 41 51 56 32 27 28 30 30 31 38 41 41 44 43 44 46 47 45 41 41 44 44 45 43 43 47 49 47 49 52 48 48 51 54 66 76 80 82 84 85 83 84 84 86 85 84 82 82 80 79 80 82 82 82 81 83
8 5 1 358 360 8 1 19 42 44 51 55 59 60 64 68 70 63 59 63 67 63 48 40 33 29 27 33 37 42 42 45 48 47 45 43 42 38 36 35 38 45 46 45 44 42 43 45 45 45 41 37 41 46 51 56 56 51 53 56 58 61 61 63 62 57 61 72 78 81 82 84 84 84 85 85 85 85 86 85 84 81 81 80 80 81 83
12 10 2 356 357 15 32 37 47 55 55 58 64 64 61 64 70 72 72 76 81 73 66 54 36 28 21 27 35 34 47 54 55 57 48 46 51 54 53 46 44 47 47 45 42 43 43 45 46 43 40 38 37 41 53 57 61 62 60 60 60 65 68 65 68 70 67 66 64 65 67 67 67 67 69 71 73 74 74 75 74 73 72 75 77 81 83
25 17 9 10 8 21 47 66 60 56 51 50 49 58 58 60 69 72 72 64 72 86 84 80 70 47 30 23 28 32 43 66 76 71 65 58 51 48 52 52 47 46 46 47 44 40 40 48 53 53 50 45 39 39 39 37 37 44 54 62 64 65 60 64 70 73 75 75 74 76 72 71 73 75 75 76 75 76 74 72 72 71 71 72 75 80 85